Epoch 2017 Sept. 4.0 TT = JDT 2458000.5 T 2017 Sept. 16.59586 TT Rudenko q 3.1991213 (2000.0) P Q z +0.0001874 Peri. 55.95500 +0.58263587 -0.80665623 +/-0.0000004 Node 354.03136 -0.14120903 +0.01973041 e 0.9994004 Incl. 72.55727 +0.80037207 +0.59069149 From 2085 observations 2015 Sept. 11-2020 Mar. 26, mean residual 0".7.
m1 = 6.3 + 5 logΔ + 10.0 log r [ ,-228] ( 〜2017年 1月31日) m1 = 9.0 + 5 logΔ + 6.0 log r(t + 120) [-228, 535] (2017年 1月31日〜2019年 3月 5日) m1 = 6.3 + 5 logΔ + 10.0 log r [ 535, ] (2019年 3月 5日〜 )